Total_Precipitation_Accumulation
1.67 2.07 2.53 2.87 3.18 3.14 3.19 3.15 3.21 3.42 3.53 3.65 3.63 3.78 3.74 3.72 3.96 4.19 4.26 4.38 4.44 4.29 4.23 4.12 4.00 3.78 3.53 3.35 3.17 3.02 2.89 2.70 2.59 2.45 2.22 1.89 1.63 1.66 1.68 1.64 1.70 1.78 1.77
1.85 2.10 2.56 2.89 3.14 3.28 3.35 3.45 3.55 3.56 3.69 4.07 4.50 4.85 5.09 5.14 5.10 5.22 5.22 5.07 4.90 4.78 4.64 4.57 4.36 4.04 3.77 3.50 3.26 3.04 2.80 2.58 2.50 2.49 2.55 2.24 1.93 1.58 1.38 1.39 1.42 1.47 1.49
2.09 2.01 2.14 2.48 2.81 3.09 3.31 3.40 3.69 4.00 4.40 4.92 5.39 5.74 6.02 6.12 5.91 5.68 5.56 5.32 5.07 4.89 4.55 4.32 4.24 3.97 3.58 3.36 3.21 3.01 2.79 2.56 2.42 2.35 2.52 2.42 2.16 1.80 1.57 1.38 1.27 1.30 1.39
1.83 2.02 2.06 2.24 2.52 2.80 3.06 3.31 3.59 4.19 5.03 5.71 6.17 6.51 6.64 6.59 6.42 6.15 5.78 5.28 4.89 4.54 4.24 3.96 3.67 3.42 3.14 2.92 2.74 2.67 2.64 2.55 2.37 2.32 2.17 1.98 1.86 1.89 1.73 1.53 1.42 1.38 1.40
1.59 1.71 1.81 1.96 2.27 2.56 2.81 3.15 3.51 4.19 4.89 5.53 6.11 6.53 6.65 6.56 6.30 5.84 5.34 4.80 4.32 3.89 3.53 3.23 2.93 2.69 2.46 2.28 2.11 2.09 2.21 2.29 2.26 2.25 2.22 2.11 1.97 1.89 1.79 1.68 1.63 1.60 1.54
1.61 1.57 1.58 1.67 1.86 2.14 2.42 2.83 3.24 3.76 4.31 4.69 5.22 5.61 5.79 5.70 5.33 4.83 4.22 3.79 3.47 3.16 2.82 2.50 2.25 2.03 1.82 1.70 1.64 1.63 1.68 1.83 1.95 2.00 2.02 2.03 2.09 2.08 2.00 1.89 1.83 1.80 1.70
1.69 1.56 1.51 1.52 1.63 1.84 2.14 2.41 2.66 3.08 3.35 3.66 4.11 4.39 4.41 4.23 3.98 3.73 3.46 3.03 2.61 2.26 2.01 1.77 1.62 1.47 1.39 1.36 1.36 1.38 1.44 1.49 1.56 1.68 1.79 1.84 1.88 1.90 2.01 2.10 2.01 1.86 1.66
1.46 1.48 1.48 1.52 1.63 1.61 1.74 1.93 2.06 2.28 2.44 2.57 2.80 2.87 2.83 2.73 2.70 2.55 2.30 2.03 1.74 1.45 1.30 1.20 1.11 1.06 1.05 1.01 1.03 1.07 1.14 1.21 1.24 1.29 1.46 1.60 1.60 1.55 1.63 1.84 1.87 1.82 1.68
1.29 1.34 1.38 1.43 1.48 1.46 1.46 1.53 1.56 1.57 1.63 1.65 1.75 1.82 1.80 1.78 1.74 1.63 1.48 1.36 1.24 1.08 0.97 0.94 0.90 0.86 0.87 0.86 0.85 0.82 0.83 0.91 1.00 1.03 1.14 1.26 1.30 1.26 1.28 1.41 1.55 1.65 1.67
1.41 1.30 1.18 1.22 1.30 1.30 1.31 1.36 1.38 1.27 1.20 1.16 1.17 1.19 1.22 1.18 1.15 1.12 1.05 1.03 0.99 0.89 0.80 0.71 0.68 0.64 0.63 0.67 0.75 0.75 0.71 0.74 0.78 0.82 0.88 0.95 0.97 1.02 1.05 1.12 1.24 1.40 1.53
1.44 1.41 1.36 1.25 1.23 1.23 1.23 1.20 1.17 1.13 1.07 1.03 1.01 0.94 0.87 0.84 0.83 0.81 0.77 0.74 0.69 0.64 0.59 0.55 0.52 0.49 0.49 0.54 0.64 0.69 0.68 0.68 0.68 0.68 0.70 0.74 0.78 0.89 0.88 0.91 0.98 1.13 1.31
1.56 1.48 1.46 1.36 1.33 1.20 1.14 1.13 1.08 0.98 0.92 0.91 0.88 0.79 0.73 0.71 0.70 0.68 0.62 0.56 0.58 0.57 0.53 0.50 0.47 0.42 0.44 0.51 0.56 0.57 0.56 0.61 0.62 0.63 0.62 0.63 0.70 0.80 0.83 0.87 0.89 0.97 1.12
1.89 1.66 1.52 1.30 1.17 1.02 0.94 0.93 0.92 0.88 0.84 0.85 0.86 0.83 0.75 0.69 0.66 0.66 0.60 0.55 0.56 0.54 0.50 0.49 0.47 0.45 0.42 0.44 0.45 0.45 0.50 0.54 0.57 0.56 0.55 0.58 0.64 0.72 0.76 0.81 0.84 0.88 0.92
1.52 1.38 1.28 1.10 0.98 0.89 0.84 0.79 0.78 0.78 0.79 0.82 0.89 0.89 0.84 0.77 0.70 0.67 0.68 0.63 0.57 0.53 0.49 0.46 0.45 0.41 0.37 0.38 0.40 0.39 0.43 0.52 0.50 0.47 0.49 0.53 0.55 0.59 0.66 0.70 0.80 0.89 0.97
1.44 1.32 1.19 1.10 0.99 0.85 0.75 0.68 0.67 0.69 0.70 0.77 0.79 0.76 0.73 0.73 0.68 0.65 0.66 0.62 0.57 0.52 0.49 0.45 0.44 0.41 0.37 0.35 0.37 0.36 0.37 0.48 0.49 0.48 0.48 0.46 0.45 0.47 0.52 0.57 0.66 0.81 0.98
1.64 1.48 1.32 1.19 1.06 0.89 0.79 0.75 0.73 0.73 0.69 0.71 0.72 0.67 0.62 0.62 0.59 0.59 0.54 0.50 0.51 0.52 0.50 0.50 0.48 0.43 0.37 0.40 0.40 0.32 0.37 0.44 0.49 0.52 0.50 0.45 0.41 0.37 0.38 0.40 0.48 0.62 0.81
1.73 1.63 1.52 1.40 1.22 1.07 0.97 0.92 0.87 0.78 0.73 0.73 0.69 0.66 0.66 0.64 0.59 0.56 0.54 0.51 0.52 0.52 0.52 0.51 0.50 0.48 0.42 0.40 0.36 0.29 0.35 0.44 0.56 0.61 0.59 0.48 0.40 0.45 0.47 0.43 0.41 0.48 0.58
1.76 1.68 1.55 1.46 1.35 1.21 1.06 0.93 0.81 0.74 0.72 0.72 0.66 0.62 0.62 0.63 0.61 0.63 0.63 0.57 0.53 0.55 0.59 0.58 0.53 0.54 0.48 0.44 0.39 0.37 0.42 0.45 0.53 0.57 0.55 0.59 0.59 0.51 0.47 0.43 0.47 0.57 0.67
1.72 1.67 1.55 1.46 1.38 1.21 1.04 0.88 0.81 0.73 0.70 0.65 0.59 0.57 0.56 0.59 0.60 0.61 0.62 0.57 0.57 0.61 0.65 0.62 0.61 0.64 0.61 0.53 0.48 0.50 0.53 0.50 0.49 0.46 0.45 0.51 0.54 0.47 0.44 0.48 0.59 0.67 0.73
1.70 1.66 1.50 1.34 1.23 1.04 0.87 0.79 0.76 0.69 0.66 0.57 0.50 0.48 0.52 0.55 0.54 0.55 0.60 0.60 0.61 0.65 0.64 0.65 0.67 0.65 0.61 0.48 0.43 0.46 0.48 0.49 0.46 0.48 0.50 0.46 0.42 0.41 0.42 0.50 0.64 0.74 0.74
1.48 1.40 1.31 1.20 1.02 0.83 0.75 0.76 0.69 0.63 0.55 0.48 0.47 0.48 0.52 0.57 0.54 0.55 0.60 0.61 0.60 0.65 0.65 0.61 0.57 0.55 0.45 0.36 0.32 0.32 0.34 0.40 0.43 0.50 0.57 0.55 0.45 0.42 0.40 0.47 0.59 0.70 0.75
1.26 1.17 1.13 1.03 0.90 0.80 0.79 0.81 0.75 0.61 0.52 0.52 0.51 0.52 0.52 0.43 0.43 0.57 0.61 0.58 0.62 0.66 0.61 0.56 0.53 0.48 0.41 0.29 0.22 0.22 0.26 0.32 0.41 0.59 0.59 0.55 0.50 0.42 0.41 0.49 0.65 0.72 0.92
1.08 0.97 0.87 0.85 0.84 0.81 0.83 0.84 0.75 0.61 0.59 0.66 0.63 0.57 0.55 0.53 0.57 0.61 0.58 0.56 0.57 0.54 0.44 0.41 0.42 0.39 0.39 0.33 0.22 0.20 0.23 0.30 0.36 0.52 0.55 0.54 0.51 0.50 0.63 0.71 0.82 0.92 1.12
0.90 0.86 0.80 0.80 0.78 0.74 0.69 0.71 0.64 0.60 0.67 0.72 0.65 0.59 0.60 0.65 0.62 0.57 0.47 0.44 0.40 0.38 0.38 0.35 0.34 0.32 0.31 0.25 0.19 0.20 0.25 0.31 0.35 0.45 0.58 0.68 0.72 0.74 0.84 0.94 1.06 1.15 1.24
0.70 0.71 0.71 0.67 0.60 0.56 0.53 0.51 0.51 0.55 0.67 0.71 0.67 0.61 0.54 0.53 0.54 0.43 0.31 0.31 0.28 0.24 0.28 0.29 0.28 0.28 0.26 0.19 0.19 0.21 0.24 0.31 0.38 0.43 0.62 0.84 0.92 0.98 1.03 1.04 1.09 1.15 1.11
0.55 0.58 0.59 0.54 0.49 0.47 0.47 0.45 0.43 0.43 0.57 0.64 0.60 0.52 0.41 0.37 0.33 0.30 0.30 0.24 0.20 0.21 0.23 0.25 0.23 0.18 0.18 0.16 0.16 0.20 0.26 0.34 0.44 0.51 0.73 0.93 1.00 1.02 1.04 1.01 1.01 1.04 1.00